Location: Makanda
(37.6176°N, 89.2090°W)
Time: 22:29:48
(UTC+00:00)

MOS 1 - Pass Details

Date: 23 September 2019
Orbit: 878 x 892 km, 99.2° (Epoch: 16 October)

Event Time Altitude Azimuth Distance (km) Brightness Sun altitude
Exits shadow 01:15:25 - 161° (SSE) 3,038 6.8 -16.8°
Reaches altitude 10° 01:16:40 10° 160° (SSE) 2,550 6.4 -17.0°
Maximum altitude 01:22:21 80° 75° (ENE) 907 4.2 -18.1°
Drops below altitude 10° 01:28:03 10° 349° (NNW) 2,558 7.0 -19.2°
Sets 01:30:27 0° 348° (NNW) 3,500 7.8 -19.7°
